QPF
0.00 0.00 0.00 0.00 0.00 0.00 0.00 0.00 0.00 0.00 0.00 0.00 0.00 0.00 0.00 0.00 0.00 0.00 0.00 0.00 0.00 0.00 0.00 0.00 0.00 0.00 0.00 0.00 0.00 0.00 0.00 0.00 0.00 0.00 0.00 0.00 0.00 0.00 0.00 0.00 0.00 0.00 0.00
0.00 0.00 0.00 0.00 0.00 0.00 0.00 0.00 0.00 0.00 0.00 0.00 0.00 0.00 0.00 0.00 0.00 0.00 0.00 0.00 0.00 0.00 0.00 0.00 0.00 0.00 0.00 0.00 0.00 0.00 0.00 0.00 0.00 0.00 0.00 0.00 0.00 0.00 0.00 0.00 0.00 0.00 0.00
0.00 0.00 0.00 0.00 0.00 0.00 0.00 0.00 0.00 0.00 0.00 0.00 0.00 0.00 0.00 0.00 0.00 0.00 0.00 0.00 0.00 0.00 0.00 0.00 0.00 0.00 0.00 0.00 0.00 0.00 0.00 0.00 0.00 0.00 0.00 0.00 0.00 0.00 0.00 0.00 0.00 0.00 0.00
0.00 0.00 0.00 0.00 0.00 0.00 0.00 0.00 0.00 0.00 0.00 0.00 0.00 0.00 0.00 0.00 0.00 0.00 0.00 0.00 0.00 0.00 0.00 0.00 0.00 0.00 0.00 0.00 0.00 0.00 0.00 0.00 0.00 0.00 0.00 0.00 0.00 0.00 0.00 0.00 0.00 0.00 0.00
0.00 0.00 0.00 0.00 0.00 0.00 0.00 0.00 0.00 0.00 0.00 0.00 0.00 0.00 0.00 0.00 0.00 0.00 0.00 0.00 0.00 0.00 0.00 0.00 0.00 0.00 0.00 0.00 0.00 0.00 0.00 0.00 0.00 0.00 0.00 0.00 0.00 0.00 0.00 0.00 0.00 0.00 0.00
0.00 0.00 0.00 0.00 0.00 0.00 0.00 0.00 0.00 0.00 0.00 0.00 0.00 0.00 0.00 0.00 0.00 0.00 0.00 0.00 0.00 0.00 0.00 0.00 0.00 0.00 0.00 0.00 0.00 0.00 0.00 0.00 0.00 0.00 0.00 0.00 0.00 0.00 0.00 0.00 0.00 0.00 0.00
0.00 0.00 0.00 0.00 0.00 0.00 0.00 0.00 0.00 0.00 0.00 0.00 0.00 0.00 0.00 0.00 0.00 0.00 0.00 0.00 0.00 0.00 0.00 0.00 0.00 0.00 0.00 0.00 0.00 0.00 0.00 0.01 0.01 0.00 0.00 0.00 0.00 0.00 0.00 0.00 0.00 0.00 0.00
0.00 0.00 0.00 0.00 0.00 0.00 0.01 0.00 0.00 0.00 0.00 0.00 0.00 0.00 0.00 0.00 0.00 0.00 0.00 0.00 0.00 0.00 0.00 0.00 0.00 0.00 0.00 0.00 0.00 0.00 0.00 0.00 0.01 0.02 0.01 0.00 0.00 0.00 0.00 0.00 0.00 0.00 0.00
0.00 0.00 0.00 0.00 0.00 0.00 0.00 0.00 0.00 0.00 0.00 0.00 0.00 0.00 0.00 0.00 0.00 0.00 0.00 0.00 0.00 0.00 0.00 0.00 0.00 0.00 0.00 0.00 0.00 0.00 0.00 0.00 0.00 0.01 0.03 0.03 0.01 0.00 0.00 0.00 0.00 0.00 0.00
0.00 0.00 0.00 0.00 0.00 0.00 0.01 0.01 0.00 0.00 0.00 0.00 0.00 0.00 0.00 0.00 0.00 0.00 0.00 0.00 0.00 0.00 0.00 0.00 0.00 0.00 0.00 0.00 0.00 0.00 0.00 0.00 0.00 0.00 0.00 0.01 0.02 0.02 0.02 0.01 0.00 0.00 0.00
0.00 0.00 0.00 0.00 0.00 0.00 0.01 0.01 0.01 0.00 0.00 0.00 0.00 0.00 0.00 0.00 0.00 0.00 0.00 0.00 0.00 0.00 0.00 0.00 0.00 0.00 0.00 0.00 0.00 0.00 0.00 0.00 0.00 0.00 0.00 0.00 0.01 0.01 0.02 0.02 0.01 0.00 0.00
0.00 0.00 0.00 0.00 0.00 0.00 0.01 0.00 0.00 0.00 0.00 0.01 0.01 0.00 0.00 0.00 0.00 0.00 0.00 0.00 0.00 0.00 0.00 0.00 0.00 0.00 0.00 0.00 0.00 0.00 0.00 0.00 0.00 0.00 0.00 0.00 0.00 0.00 0.00 0.00 0.00 0.00 0.00
0.00 0.00 0.00 0.00 0.00 0.01 0.01 0.00 0.00 0.00 0.01 0.01 0.01 0.01 0.00 0.00 0.00 0.00 0.00 0.00 0.00 0.00 0.00 0.00 0.00 0.00 0.00 0.00 0.00 0.00 0.00 0.00 0.00 0.00 0.00 0.00 0.00 0.00 0.00 0.00 0.00 0.00 0.00
0.00 0.00 0.00 0.00 0.00 0.00 0.00 0.01 0.02 0.02 0.01 0.00 0.01 0.01 0.01 0.00 0.00 0.00 0.00 0.01 0.01 0.00 0.00 0.00 0.00 0.00 0.00 0.00 0.00 0.00 0.00 0.00 0.00 0.00 0.00 0.00 0.00 0.00 0.00 0.00 0.00 0.00 0.00
0.00 0.00 0.00 0.00 0.00 0.00 0.00 0.00 0.00 0.01 0.01 0.01 0.01 0.01 0.01 0.00 0.00 0.00 0.00 0.00 0.01 0.01 0.00 0.00 0.00 0.00 0.00 0.00 0.00 0.00 0.00 0.00 0.00 0.00 0.00 0.00 0.00 0.00 0.00 0.00 0.00 0.00 0.00
0.00 0.00 0.00 0.00 0.00 0.01 0.01 0.00 0.00 0.00 0.00 0.00 0.00 0.00 0.00 0.00 0.01 0.01 0.00 0.00 0.00 0.00 0.00 0.00 0.00 0.00 0.00 0.00 0.00 0.00 0.00 0.00 0.00 0.00 0.01 0.01 0.02 0.02 0.02 0.02 0.03 0.01 0.00
0.00 0.00 0.00 0.00 0.00 0.00 0.00 0.00 0.00 0.00 0.00 0.00 0.00 0.00 0.00 0.00 0.00 0.00 0.00 0.00 0.00 0.00 0.00 0.00 0.00 0.00 0.00 0.00 0.00 0.00 0.00 0.00 0.00 0.00 0.01 0.02 0.04 0.05 0.05 0.05 0.06 0.04 0.02
0.00 0.00 0.00 0.00 0.00 0.00 0.00 0.00 0.00 0.00 0.00 0.00 0.00 0.00 0.00 0.00 0.00 0.00 0.00 0.00 0.00 0.00 0.00 0.00 0.00 0.00 0.00 0.00 0.00 0.00 0.00 0.00 0.00 0.00 0.01 0.01 0.03 0.04 0.03 0.05 0.06 0.05 0.02
0.00 0.00 0.00 0.00 0.00 0.00 0.00 0.00 0.00 0.00 0.00 0.00 0.00 0.00 0.00 0.00 0.00 0.00 0.00 0.00 0.00 0.00 0.00 0.00 0.00 0.00 0.00 0.00 0.00 0.00 0.00 0.00 0.00 0.00 0.00 0.00 0.01 0.03 0.05 0.06 0.07 0.05 0.05
0.00 0.00 0.00 0.00 0.00 0.00 0.00 0.00 0.00 0.00 0.00 0.00 0.00 0.00 0.00 0.00 0.00 0.00 0.00 0.00 0.00 0.00 0.00 0.00 0.00 0.00 0.00 0.00 0.00 0.00 0.00 0.00 0.01 0.03 0.02 0.02 0.04 0.07 0.10 0.10 0.10 0.09 0.08
0.00 0.00 0.00 0.00 0.00 0.00 0.00 0.00 0.00 0.00 0.00 0.00 0.00 0.00 0.00 0.00 0.00 0.00 0.00 0.00 0.00 0.00 0.00 0.00 0.00 0.00 0.00 0.00 0.00 0.01 0.04 0.06 0.08 0.07 0.04 0.02 0.04 0.08 0.14 0.18 0.16 0.21 0.29
0.00 0.00 0.00 0.00 0.00 0.00 0.00 0.00 0.00 0.00 0.00 0.00 0.00 0.00 0.00 0.00 0.00 0.00 0.00 0.00 0.00 0.00 0.00 0.00 0.00 0.00 0.00 0.00 0.00 0.02 0.05 0.07 0.08 0.06 0.06 0.08 0.09 0.11 0.14 0.16 0.22 0.29 0.23
0.00 0.00 0.00 0.00 0.00 0.00 0.00 0.00 0.00 0.00 0.00 0.00 0.00 0.00 0.00 0.00 0.00 0.00 0.00 0.00 0.00 0.00 0.00 0.01 0.01 0.01 0.00 0.01 0.02 0.03 0.06 0.08 0.11 0.10 0.11 0.12 0.09 0.07 0.09 0.14 0.17 0.14 0.09
0.02 0.01 0.01 0.00 0.00 0.00 0.00 0.00 0.00 0.00 0.00 0.00 0.00 0.00 0.00 0.00 0.00 0.00 0.00 0.00 0.00 0.01 0.02 0.03 0.03 0.03 0.06 0.09 0.10 0.13 0.16 0.16 0.15 0.13 0.11 0.10 0.13 0.12 0.13 0.13 0.12 0.08 0.05
0.02 0.02 0.04 0.02 0.01 0.01 0.01 0.00 0.00 0.00 0.00 0.01 0.00 0.00 0.00 0.00 0.00 0.01 0.00 0.00 0.00 0.01 0.05 0.09 0.09 0.12 0.15 0.13 0.10 0.08 0.09 0.09 0.10 0.10 0.08 0.06 0.08 0.09 0.09 0.07 0.07 0.05 0.02
0.02 0.04 0.05 0.02 0.01 0.00 0.01 0.01 0.01 0.00 0.01 0.02 0.01 0.01 0.03 0.03 0.02 0.03 0.02 0.00 0.02 0.04 0.05 0.08 0.11 0.13 0.14 0.15 0.16 0.14 0.13 0.11 0.08 0.07 0.05 0.05 0.05 0.05 0.03 0.01 0.02 0.01 0.00
MSLP
1013.92 1015.10 1015.72 1016.31 1017.09 1017.37 1017.67 1018.14 1018.51 1018.91 1019.28 1019.65 1020.07 1020.72 1021.25 1021.82 1022.03 1022.52 1023.25 1023.45 1023.64 1023.80 1024.32 1024.78 1025.10 1025.42 1025.76 1026.05 1026.45 1026.89 1026.98 1027.32 1027.60 1027.87 1027.98 1028.31 1028.49 1028.64 1028.78 1028.86 1028.85 1029.06 1029.16
1013.79 1014.76 1015.63 1016.34 1016.95 1017.16 1017.59 1018.14 1018.52 1018.94 1019.26 1019.60 1020.06 1020.87 1021.35 1022.00 1022.14 1022.51 1023.26 1023.52 1023.70 1024.06 1024.28 1024.67 1024.98 1025.50 1025.79 1026.16 1026.69 1026.87 1026.99 1027.29 1027.50 1027.88 1028.15 1028.42 1028.56 1028.69 1028.88 1029.05 1029.13 1029.34 1029.36
1013.59 1014.45 1015.35 1016.08 1016.32 1017.34 1017.83 1018.15 1018.57 1018.97 1019.39 1019.77 1020.18 1020.90 1021.52 1022.12 1022.31 1022.47 1023.09 1023.57 1023.80 1024.08 1024.46 1024.78 1024.96 1025.35 1025.71 1026.18 1026.49 1026.79 1027.15 1027.43 1027.53 1027.84 1028.14 1028.42 1028.69 1028.77 1028.79 1029.02 1029.10 1029.28 1029.44
1013.42 1014.33 1014.95 1015.70 1016.21 1017.11 1017.63 1018.23 1018.65 1019.00 1019.21 1020.09 1020.41 1020.97 1021.49 1022.17 1022.46 1022.64 1022.99 1023.46 1023.84 1024.11 1024.38 1024.71 1025.05 1025.37 1025.77 1026.17 1026.45 1026.66 1026.93 1027.27 1027.57 1027.68 1027.99 1028.02 1028.32 1028.51 1028.62 1028.78 1028.85 1028.99 1029.22
1013.51 1013.87 1014.67 1015.42 1015.68 1016.58 1017.78 1018.21 1018.68 1018.87 1019.32 1019.99 1020.49 1020.97 1021.50 1022.33 1022.61 1022.62 1022.97 1023.40 1023.77 1024.18 1024.47 1024.60 1024.93 1025.24 1025.61 1025.86 1026.24 1026.39 1026.61 1026.87 1027.25 1027.34 1027.66 1027.71 1027.78 1027.98 1028.14 1028.29 1028.45 1028.59 1028.72
1013.30 1013.83 1014.65 1015.14 1015.57 1016.74 1017.64 1017.91 1018.44 1018.96 1019.12 1019.69 1020.40 1021.24 1021.75 1022.32 1022.65 1022.78 1022.92 1023.37 1023.74 1024.03 1024.31 1024.53 1024.81 1025.11 1025.23 1025.44 1025.71 1025.93 1026.05 1026.30 1026.72 1027.04 1027.21 1027.37 1027.44 1027.59 1027.86 1027.85 1027.89 1028.11 1028.19
1013.00 1013.63 1014.21 1015.18 1015.71 1016.44 1016.99 1017.62 1018.24 1018.80 1019.39 1019.60 1020.62 1021.86 1022.37 1022.55 1022.53 1022.72 1022.89 1023.28 1023.70 1023.88 1024.11 1024.28 1024.51 1024.76 1024.93 1025.11 1025.24 1025.42 1025.54 1025.62 1025.94 1026.27 1026.49 1026.61 1026.76 1027.01 1027.20 1027.35 1027.36 1027.45 1027.64
1012.95 1013.39 1014.08 1014.87 1015.84 1016.43 1016.86 1017.24 1017.81 1018.79 1019.15 1019.39 1020.06 1021.24 1022.29 1022.93 1022.72 1022.80 1022.88 1022.95 1023.30 1023.45 1023.74 1023.89 1024.07 1024.24 1024.41 1024.75 1024.81 1024.91 1025.01 1025.02 1025.15 1025.34 1025.44 1025.67 1025.91 1026.15 1026.37 1026.60 1026.73 1026.96 1027.13
1013.02 1013.44 1014.04 1014.79 1015.44 1016.00 1016.53 1017.13 1017.49 1017.93 1018.69 1019.38 1019.52 1020.37 1021.68 1022.15 1022.36 1022.68 1022.79 1022.74 1023.05 1023.20 1023.00 1023.21 1023.40 1023.60 1023.76 1024.06 1024.19 1024.29 1024.39 1024.50 1024.62 1024.54 1024.76 1024.95 1025.13 1025.28 1025.52 1025.78 1025.95 1026.07 1026.23
1013.10 1013.51 1014.10 1014.65 1015.09 1015.69 1016.08 1016.76 1017.38 1017.64 1017.96 1019.15 1019.81 1019.86 1020.17 1020.40 1022.05 1022.62 1022.39 1022.38 1022.45 1022.57 1022.65 1022.75 1022.73 1022.82 1023.00 1023.22 1023.31 1023.40 1023.49 1023.79 1023.92 1024.13 1023.99 1024.02 1024.18 1024.44 1024.61 1024.83 1024.96 1025.14 1025.25
1013.12 1013.31 1013.81 1014.32 1014.82 1015.34 1015.71 1016.22 1017.14 1017.73 1017.77 1018.61 1019.22 1019.84 1020.20 1020.11 1021.03 1021.59 1022.11 1021.97 1022.19 1021.84 1021.83 1021.96 1021.97 1022.07 1022.24 1022.39 1022.51 1022.52 1022.47 1022.73 1022.96 1023.10 1023.19 1023.18 1023.15 1023.27 1023.45 1023.71 1023.87 1023.99 1024.18
1013.02 1013.32 1013.72 1014.20 1014.69 1015.17 1015.56 1016.25 1017.12 1017.50 1017.34 1017.73 1018.53 1018.99 1019.57 1019.74 1020.47 1020.97 1021.49 1021.60 1021.66 1021.26 1020.99 1021.12 1021.32 1021.30 1021.31 1021.48 1021.48 1021.38 1021.26 1021.63 1021.98 1022.14 1022.10 1022.11 1022.19 1022.19 1022.28 1022.41 1022.60 1022.81 1023.01
1012.83 1013.09 1013.55 1014.13 1014.54 1014.86 1015.38 1016.19 1016.72 1016.74 1017.00 1017.43 1017.96 1018.51 1018.87 1019.15 1019.38 1020.06 1020.66 1020.93 1021.16 1020.85 1020.61 1020.26 1020.23 1020.13 1020.21 1020.43 1020.47 1020.49 1020.45 1020.58 1020.79 1020.86 1020.95 1020.99 1020.96 1021.11 1021.34 1021.33 1021.42 1021.62 1021.91
1012.18 1012.55 1013.07 1013.56 1013.99 1014.56 1015.16 1015.77 1016.01 1016.28 1016.70 1017.04 1017.41 1017.89 1018.30 1018.39 1019.03 1019.35 1019.80 1020.37 1020.68 1020.62 1020.32 1019.69 1019.50 1019.40 1019.37 1019.35 1019.25 1019.27 1019.54 1019.54 1019.63 1019.69 1019.73 1019.85 1019.98 1020.08 1020.31 1020.47 1020.56 1020.67 1020.99
1011.80 1012.32 1012.84 1013.32 1013.74 1014.26 1014.68 1015.01 1015.55 1015.96 1016.41 1016.73 1017.02 1017.36 1017.57 1017.50 1018.14 1018.90 1019.35 1019.25 1019.31 1019.90 1019.63 1018.96 1019.17 1018.32 1018.25 1018.26 1018.11 1018.16 1018.43 1018.40 1018.58 1018.70 1018.64 1018.73 1018.93 1019.13 1019.28 1019.52 1019.54 1019.60 1019.95
1011.36 1011.88 1012.37 1012.78 1013.29 1013.64 1014.04 1014.51 1015.07 1015.46 1015.93 1016.16 1016.37 1016.71 1017.10 1016.65 1016.83 1018.18 1018.68 1018.47 1018.30 1018.47 1018.29 1017.75 1017.71 1017.40 1017.30 1017.25 1017.02 1017.18 1017.24 1017.24 1017.46 1017.53 1017.56 1017.69 1017.68 1017.98 1018.20 1018.43 1018.80 1019.01 1019.24
1011.11 1011.45 1011.87 1012.22 1012.58 1012.91 1013.36 1013.86 1014.22 1014.56 1014.93 1015.23 1015.63 1015.95 1016.15 1016.04 1016.28 1016.73 1016.99 1017.08 1017.23 1017.33 1017.15 1016.30 1016.57 1016.45 1016.63 1016.65 1016.52 1016.40 1016.40 1016.46 1016.32 1016.19 1016.27 1016.45 1016.59 1016.42 1016.93 1017.30 1017.78 1018.46 1018.79
1010.71 1011.08 1011.47 1011.82 1012.21 1012.50 1012.81 1013.07 1013.42 1013.85 1014.23 1014.45 1014.64 1014.88 1014.99 1015.25 1015.59 1015.83 1015.85 1016.04 1016.05 1015.75 1015.98 1015.73 1015.44 1015.70 1015.74 1015.36 1015.47 1015.75 1015.40 1015.24 1015.15 1014.99 1015.12 1015.21 1015.45 1015.64 1015.92 1016.54 1017.08 1017.73 1018.35
1010.15 1010.55 1010.86 1011.22 1011.50 1011.82 1012.21 1012.47 1012.75 1013.03 1013.19 1013.44 1013.81 1014.03 1014.01 1014.59 1014.65 1014.84 1015.01 1015.16 1015.11 1014.95 1014.92 1014.96 1014.49 1014.33 1014.30 1014.49 1014.67 1014.45 1014.33 1014.25 1014.15 1014.03 1014.37 1014.50 1014.71 1014.76 1014.90 1015.44 1016.45 1017.43 1018.23
1009.23 1009.61 1010.01 1010.38 1010.66 1011.01 1011.30 1011.62 1011.97 1012.20 1012.34 1012.49 1012.76 1012.78 1012.94 1013.30 1013.28 1013.53 1013.82 1013.77 1013.70 1013.80 1013.80 1013.88 1013.65 1013.50 1013.43 1013.34 1013.67 1013.60 1013.73 1013.73 1013.45 1013.44 1013.42 1013.70 1014.07 1014.45 1014.83 1015.35 1016.21 1016.90 1017.82
1008.08 1008.52 1009.03 1009.35 1009.70 1010.01 1010.21 1010.56 1010.90 1011.18 1011.43 1011.56 1011.68 1011.69 1011.70 1011.80 1011.80 1011.83 1012.25 1012.25 1012.55 1012.73 1012.75 1012.66 1012.42 1012.25 1012.18 1013.15 1012.95 1012.87 1012.90 1012.95 1013.24 1013.23 1013.56 1013.93 1014.17 1014.49 1014.82 1015.44 1016.42 1017.36 1017.62
1007.10 1007.54 1007.78 1008.19 1008.55 1008.63 1008.84 1009.31 1009.78 1010.09 1010.29 1010.41 1010.34 1010.44 1010.44 1010.61 1010.49 1010.58 1010.74 1010.78 1011.08 1011.51 1011.78 1011.84 1011.25 1010.91 1010.66 1010.83 1011.28 1011.62 1011.89 1012.92 1013.56 1013.53 1013.39 1014.16 1014.37 1014.68 1015.13 1015.63 1016.41 1017.21 1017.81
1006.63 1006.69 1006.90 1007.20 1007.35 1007.44 1007.75 1008.27 1008.88 1009.19 1009.13 1008.96 1008.99 1009.18 1009.25 1009.06 1009.28 1009.48 1009.61 1009.96 1010.07 1010.31 1010.37 1010.35 1010.05 1009.81 1009.52 1009.54 1009.90 1010.75 1011.65 1012.17 1012.60 1013.37 1013.39 1014.35 1014.86 1015.03 1015.26 1015.90 1016.59 1017.02 1017.53
1005.85 1005.92 1006.05 1006.14 1006.45 1006.32 1006.85 1007.29 1007.59 1007.88 1007.67 1007.45 1007.47 1007.52 1007.58 1007.46 1007.69 1008.07 1008.51 1009.03 1009.67 1010.27 1010.32 1010.35 1010.35 1010.27 1010.34 1010.02 1009.97 1010.81 1011.08 1012.40 1013.33 1013.33 1013.88 1014.97 1015.12 1015.38 1015.76 1016.13 1016.62 1017.05 1017.39
1005.39 1005.27 1005.38 1005.86 1006.22 1005.67 1006.69 1006.48 1006.48 1006.48 1006.46 1006.23 1006.11 1006.18 1006.33 1006.32 1006.36 1006.83 1007.66 1008.61 1009.95 1010.79 1010.96 1010.70 1010.85 1010.69 1010.71 1010.72 1010.84 1011.12 1011.99 1012.48 1014.66 1014.76 1014.38 1014.90 1015.72 1016.04 1016.21 1015.98 1016.35 1016.81 1017.32
1005.69 1005.20 1006.19 1007.13 1007.42 1007.60 1008.01 1007.49 1006.97 1006.13 1005.90 1005.72 1006.26 1006.85 1007.02 1006.84 1006.44 1006.33 1006.62 1007.83 1009.41 1010.55 1011.09 1011.42 1011.39 1010.98 1011.24 1011.68 1011.83 1012.49 1012.96 1013.17 1013.49 1015.38 1016.10 1016.52 1016.39 1016.53 1016.71 1016.67 1016.51 1016.86 1017.37
Thickness
5638 5631 5631 5630 5629 5632 5632 5631 5631 5631 5635 5639 5636 5631 5633 5630 5631 5628 5623 5621 5619 5618 5614 5611 5608 5606 5603 5602 5599 5595 5595 5592 5590 5588 5587 5585 5583 5582 5580 5579 5579 5576 5574
5635 5633 5629 5626 5627 5630 5628 5627 5629 5629 5630 5634 5633 5625 5627 5624 5626 5625 5619 5617 5614 5611 5611 5607 5605 5599 5598 5595 5592 5591 5591 5588 5588 5585 5583 5581 5580 5579 5576 5574 5573 5570 5569
5635 5631 5627 5626 5630 5624 5624 5624 5624 5624 5624 5628 5627 5623 5622 5619 5619 5620 5616 5611 5609 5606 5604 5601 5600 5596 5594 5591 5589 5587 5584 5583 5584 5581 5579 5577 5574 5574 5573 5570 5569 5566 5563
5631 5630 5629 5628 5628 5622 5620 5619 5621 5621 5620 5621 5620 5616 5616 5613 5612 5613 5611 5607 5604 5602 5600 5597 5594 5590 5587 5585 5584 5583 5582 5580 5578 5578 5576 5576 5573 5570 5569 5567 5565 5563 5559
5627 5630 5628 5623 5628 5622 5613 5614 5616 5617 5612 5614 5614 5613 5610 5607 5605 5606 5605 5602 5600 5596 5595 5592 5589 5586 5583 5582 5579 5580 5579 5579 5576 5575 5572 5573 5572 5570 5568 5566 5563 5560 5558
5626 5626 5623 5625 5624 5615 5609 5613 5612 5609 5609 5609 5609 5605 5602 5598 5600 5599 5599 5596 5594 5592 5590 5588 5584 5582 5582 5580 5579 5577 5577 5577 5574 5571 5570 5569 5569 5567 5563 5563 5561 5558 5556
5625 5625 5623 5619 5617 5614 5612 5610 5609 5606 5602 5603 5600 5594 5591 5590 5592 5593 5595 5591 5588 5587 5585 5584 5581 5579 5578 5578 5578 5577 5576 5576 5573 5570 5569 5567 5566 5564 5560 5559 5558 5556 5554
5622 5623 5621 5617 5610 5608 5609 5609 5608 5600 5600 5600 5599 5590 5584 5582 5586 5586 5588 5588 5584 5582 5581 5579 5578 5578 5578 5575 5576 5575 5574 5573 5572 5570 5569 5567 5566 5563 5560 5557 5555 5553 5551
5617 5617 5615 5611 5608 5609 5608 5604 5605 5604 5599 5595 5597 5589 5575 5579 5580 5581 5580 5580 5580 5579 5579 5579 5578 5577 5577 5575 5575 5575 5574 5573 5570 5570 5568 5567 5566 5564 5560 5556 5554 5552 5550
5611 5610 5608 5607 5608 5607 5606 5602 5599 5599 5598 5590 5584 5587 5585 5585 5573 5573 5578 5578 5577 5576 5575 5576 5577 5578 5578 5577 5577 5577 5575 5572 5571 5568 5569 5567 5565 5562 5560 5558 5556 5553 5550
5606 5607 5607 5606 5605 5604 5601 5602 5594 5592 5592 5587 5586 5580 5579 5582 5578 5575 5571 5575 5576 5578 5579 5578 5578 5578 5577 5578 5578 5578 5578 5575 5573 5571 5568 5567 5565 5562 5559 5556 5555 5553 5550
5605 5605 5604 5602 5599 5598 5598 5593 5588 5587 5591 5591 5586 5582 5578 5580 5576 5574 5572 5572 5574 5578 5580 5581 5582 5581 5581 5579 5579 5579 5582 5578 5573 5571 5569 5567 5564 5562 5560 5558 5555 5551 5547
5604 5605 5602 5597 5597 5597 5593 5587 5588 5590 5590 5589 5585 5581 5579 5579 5579 5576 5573 5572 5571 5573 5576 5581 5582 5584 5583 5581 5581 5579 5581 5579 5576 5574 5572 5569 5567 5563 5558 5556 5554 5549 5544
5607 5606 5603 5601 5598 5593 5592 5589 5590 5590 5588 5585 5583 5580 5579 5580 5575 5574 5573 5568 5565 5567 5572 5582 5582 5584 5582 5581 5582 5581 5577 5577 5575 5574 5572 5569 5564 5560 5554 5549 5547 5544 5539
5608 5603 5600 5597 5595 5593 5592 5589 5586 5584 5583 5581 5580 5578 5578 5580 5577 5572 5569 5571 5570 5564 5570 5581 5577 5584 5583 5580 5582 5581 5577 5576 5573 5570 5567 5564 5560 5554 5550 5546 5544 5541 5535
5606 5602 5600 5599 5597 5596 5593 5588 5582 5581 5580 5579 5579 5577 5575 5580 5579 5569 5566 5568 5571 5569 5570 5582 5580 5583 5580 5579 5581 5578 5575 5573 5570 5566 5563 5559 5557 5552 5547 5543 5537 5534 5528
5606 5605 5603 5601 5599 5597 5595 5591 5587 5585 5584 5582 5579 5576 5575 5579 5577 5574 5573 5572 5571 5570 5568 5583 5577 5580 5577 5576 5575 5573 5570 5567 5567 5566 5563 5558 5555 5554 5547 5542 5535 5527 5521
5606 5602 5601 5600 5598 5597 5594 5591 5589 5586 5583 5582 5581 5579 5580 5577 5576 5576 5575 5574 5573 5577 5570 5570 5578 5576 5573 5577 5573 5568 5568 5566 5564 5564 5561 5557 5552 5548 5543 5535 5529 5520 5513
5606 5603 5601 5599 5598 5596 5592 5591 5589 5586 5585 5583 5581 5580 5582 5575 5578 5577 5574 5572 5572 5572 5570 5566 5572 5575 5574 5571 5568 5567 5566 5562 5560 5559 5554 5551 5546 5543 5538 5530 5519 5509 5500
5610 5607 5604 5602 5599 5595 5593 5591 5588 5586 5585 5583 5580 5581 5580 5578 5579 5576 5572 5573 5573 5570 5569 5564 5566 5569 5569 5568 5564 5567 5560 5556 5554 5550 5547 5543 5537 5531 5524 5517 5506 5498 5488
5615 5611 5606 5604 5600 5598 5597 5593 5589 5586 5584 5582 5581 5582 5582 5580 5578 5579 5574 5575 5570 5565 5564 5564 5565 5567 5568 5553 5557 5558 5553 5551 5542 5540 5533 5528 5523 5516 5511 5501 5490 5480 5473
5616 5613 5612 5608 5605 5605 5602 5595 5592 5589 5587 5585 5585 5583 5583 5578 5580 5577 5574 5573 5571 5565 5562 5561 5566 5566 5568 5564 5557 5554 5549 5530 5529 5522 5520 5511 5506 5499 5491 5483 5473 5462 5454
5612 5613 5611 5607 5607 5607 5602 5595 5587 5585 5584 5585 5585 5583 5582 5584 5579 5578 5573 5566 5564 5559 5557 5563 5565 5564 5565 5563 5556 5537 5528 5522 5515 5507 5505 5492 5485 5479 5473 5463 5453 5445 5437
5611 5610 5609 5608 5605 5608 5599 5592 5587 5585 5586 5588 5587 5586 5584 5585 5582 5576 5570 5562 5554 5546 5544 5541 5539 5540 5536 5536 5534 5525 5518 5500 5489 5492 5482 5470 5464 5458 5451 5443 5435 5426 5419
5608 5608 5604 5600 5597 5602 5586 5589 5587 5587 5587 5588 5586 5584 5581 5580 5579 5571 5564 5549 5536 5530 5528 5527 5523 5522 5517 5514 5510 5505 5494 5488 5461 5458 5458 5450 5439 5433 5427 5424 5416 5407 5399
5593 5599 5580 5571 5569 5566 5562 5567 5570 5577 5581 5581 5569 5561 5556 5558 5560 5560 5560 5545 5528 5517 5510 5505 5503 5502 5496 5489 5483 5474 5466 5459 5455 5440 5427 5418 5415 5410 5404 5398 5395 5388 5379